Location: Hermaringen
(48.5952°N, 10.2585°E)
Time: 20:10:53
(UTC+00:00)

Vanguard 2 - All Passes

Search period start: 15 February 2026 00:00
Search period end: 25 February 2026 00:00
Orbit: 553 x 2897 km, 32.9° (Epoch: 14 February)

Date Brightness Start Highest point End Pass type
(mag) Time Alt. Az. Time Alt. Az. Time Alt. Az.
19 Feb - 06:51:00 10° S 06:51:14 10° S 06:51:28 10° S daylight
20 Feb - 04:54:23 10° SSW 04:56:05 11° S 04:57:38 10° SSE visible
21 Feb - 05:05:16 10° SSW 05:07:49 13° S 05:10:02 10° SSE visible
22 Feb - 03:09:36 10° S 03:12:19 12° S 03:14:41 10° SSE visible
22 Feb - 05:16:33 10° SW 05:19:31 14° S 05:22:03 10° SSE visible
23 Feb - 03:19:56 10° SSW 03:24:05 15° S 03:27:25 10° SE visible
23 Feb - 05:28:04 10° SW 05:31:13 15° S 05:33:51 10° SSE visible
24 Feb - 01:25:38 10° S 01:28:05 11° SSE 01:30:18 10° SE visible
24 Feb - 03:30:49 10° SW 03:35:50 18° S 03:39:42 10° SE visible
24 Feb - 05:39:47 10° SW 05:42:52 14° SSW 05:45:29 10° SSE visible
